TimeEDT,TemperatureF,Dew PointF,Humidity,Sea Level PressureIn,VisibilityMPH,Wind Direction,Wind SpeedMPH,Gust SpeedMPH,PrecipitationIn,Events,Conditions,WindDirDegrees,DateUTC
1:42 AM,55.4,53.6,94,30.15,3.0,Calm,Calm,-,N/A,,Scattered Clouds,0,2013-08-16 05:42:00
1:53 AM,57.0,54.0,89,30.14,5.0,Calm,Calm,-,N/A,,Partly Cloudy,0,2013-08-16 05:53:00
2:38 AM,55.4,53.6,94,30.14,1.8,Calm,Calm,-,N/A,,Mostly Cloudy,0,2013-08-16 06:38:00
2:45 AM,55.4,55.4,100,30.14,0.2,Calm,Calm,-,N/A,Fog,Fog,0,2013-08-16 06:45:00
2:53 AM,55.9,55.0,97,30.13,0.2,Calm,Calm,-,N/A,Fog,Fog,0,2013-08-16 06:53:00
3:23 AM,55.4,53.6,94,30.14,1.2,Calm,Calm,-,N/A,,Mostly Cloudy,0,2013-08-16 07:23:00
3:26 AM,55.4,53.6,94,30.14,3.0,Calm,Calm,-,N/A,,Mostly Cloudy,0,2013-08-16 07:26:00
3:31 AM,53.6,53.6,100,30.14,2.5,Calm,Calm,-,N/A,,Mostly Cloudy,0,2013-08-16 07:31:00
3:40 AM,55.4,53.6,94,30.14,1.0,Calm,Calm,-,N/A,,Mostly Cloudy,0,2013-08-16 07:40:00
3:49 AM,55.4,53.6,94,30.14,3.0,Calm,Calm,-,N/A,,Overcast,0,2013-08-16 07:49:00
3:53 AM,55.9,55.0,97,30.13,5.0,Calm,Calm,-,N/A,,Overcast,0,2013-08-16 07:53:00
3:59 AM,55.4,55.4,100,30.14,2.5,Calm,Calm,-,N/A,,Overcast,0,2013-08-16 07:59:00
4:05 AM,55.4,55.4,100,30.14,0.8,Calm,Calm,-,N/A,,Overcast,0,2013-08-16 08:05:00
4:12 AM,55.4,55.4,100,30.15,0.2,Calm,Calm,-,N/A,Fog,Fog,0,2013-08-16 08:12:00
4:45 AM,53.6,53.6,100,30.15,1.0,Calm,Calm,-,N/A,,Mist,0,2013-08-16 08:45:00
4:53 AM,55.0,54.0,96,30.14,2.0,Calm,Calm,-,N/A,,Mostly Cloudy,0,2013-08-16 08:53:00
5:03 AM,55.4,53.6,94,30.15,7.0,Calm,Calm,-,N/A,,Scattered Clouds,0,2013-08-16 09:03:00
5:53 AM,53.1,52.0,96,30.14,8.0,Calm,Calm,-,N/A,,Partly Cloudy,0,2013-08-16 09:53:00
6:40 AM,53.6,53.6,100,30.16,2.0,Calm,Calm,-,N/A,,Scattered Clouds,0,2013-08-16 10:40:00
6:43 AM,53.6,53.6,100,30.16,0.8,Calm,Calm,-,N/A,,Mist,0,2013-08-16 10:43:00
6:47 AM,55.4,53.6,94,30.16,0.2,Calm,Calm,-,N/A,Fog,Fog,0,2013-08-16 10:47:00
6:53 AM,55.0,54.0,96,30.15,0.1,Calm,Calm,-,N/A,Fog,Fog,0,2013-08-16 10:53:00
7:53 AM,55.9,55.0,97,30.17,0.1,Calm,Calm,-,N/A,Fog,Fog,0,2013-08-16 11:53:00
8:03 AM,55.4,55.4,100,30.17,0.1,ENE,3.5,-,N/A,Fog,Fog,70,2013-08-16 12:03:00
8:09 AM,55.4,55.4,100,30.17,0.5,Calm,Calm,-,N/A,Fog,Fog,0,2013-08-16 12:09:00
8:17 AM,57.2,55.4,94,30.17,4.0,Calm,Calm,-,N/A,Fog,Patches of Fog,0,2013-08-16 12:17:00
8:53 AM,59.0,57.0,93,30.17,9.0,ENE,4.6,-,N/A,,Clear,70,2013-08-16 12:53:00
9:53 AM,64.9,57.0,75,30.17,10.0,Calm,Calm,-,N/A,,Clear,0,2013-08-16 13:53:00
10:53 AM,69.1,55.9,63,30.17,10.0,Calm,Calm,-,N/A,,Clear,0,2013-08-16 14:53:00
11:53 AM,73.0,55.9,55,30.17,10.0,Calm,Calm,-,N/A,,Partly Cloudy,0,2013-08-16 15:53:00
12:53 PM,73.9,59.0,59,30.17,10.0,Calm,Calm,-,N/A,,Mostly Cloudy,0,2013-08-16 16:53:00
1:53 PM,75.0,57.9,55,30.16,10.0,Calm,Calm,-,N/A,,Mostly Cloudy,0,2013-08-16 17:53:00
2:53 PM,75.9,57.0,52,30.15,10.0,Calm,Calm,-,N/A,,Mostly Cloudy,0,2013-08-16 18:53:00
3:53 PM,75.9,55.9,50,30.14,10.0,Calm,Calm,-,N/A,,Partly Cloudy,0,2013-08-16 19:53:00
4:53 PM,78.1,55.9,46,30.13,10.0,Calm,Calm,-,N/A,,Partly Cloudy,0,2013-08-16 20:53:00
5:53 PM,79.0,57.0,47,30.14,10.0,ENE,3.5,-,N/A,,Mostly Cloudy,70,2013-08-16 21:53:00
6:53 PM,78.1,57.9,50,30.14,10.0,Calm,Calm,-,N/A,,Clear,0,2013-08-16 22:53:00
7:53 PM,73.0,57.9,59,30.15,10.0,NE,4.6,-,N/A,,Clear,40,2013-08-16 23:53:00
8:53 PM,66.0,62.1,87,30.15,10.0,Calm,Calm,-,N/A,,Clear,0,2013-08-17 00:53:00
9:53 PM,64.0,61.0,90,30.16,9.0,Calm,Calm,-,N/A,,Clear,0,2013-08-17 01:53:00
10:53 PM,62.1,60.1,93,30.18,8.0,Calm,Calm,-,N/A,,Clear,0,2013-08-17 02:53:00
11:53 PM,62.1,59.0,90,30.17,9.0,Calm,Calm,-,N/A,,Clear,0,2013-08-17 03:53:00